Regional Weather Roundup
Issued by NWS

Home | Current Version | Previous Version | Text Only | Print | Product List | Glossary Off
Versions: 1 2 3 4 5 6 7 8 9 10 11 12 13 14 15 16 17 18 19 20 21 22 23 24 25 26 27 28 29 30 31 32 33 34 35 36 37 38 39 40 41 42 43 44 45 46 47 48 49 50

000
ASUS43 KMKX 241511
RWRWI

WISCONSIN REGIONAL WEATHER ROUNDUP
NATIONAL WEATHER SERVICE MILWAUKEE/SULLIVAN WI
900 AM CST FRI FEB 24 2017

NOTE: "FAIR" INDICATES FEW OR NO CLOUDS BELOW 12,000 FEET WITH NO
SIGNIFICANT WEATHER AND/OR OBSTRUCTIONS TO VISIBILITY.

WIZ001-002-006>008-014>016-023>028-241600-
NORTHWEST WISCONSIN

CITY           SKY/WX    TMP DP  RH WIND       PRES   REMARKS
SUPERIOR ARPT  CLOUDY    21  13  72 NE12G17   29.96S WCI   9
ASHLAND        LGT SNOW  22  16  78 NE20G26   29.92F WCI   7
HAYWARD        LGT SNOW  23  17  78 NE16G29   29.84S WCI  10
SIREN          CLOUDY    24  18  75 NE17G26   29.87S WCI  11
CUMBERLAND     CLOUDY    25  19  80 N21G26    29.80S WCI  10
RICE LAKE      LGT SNOW  25  22  88 N12       29.82R WCI  15
CHETEK         FLURRIES  26  22  82 N13       29.80R WCI  15
LADYSMITH      LGT SNOW  26  21  83 N12       29.79R WCI  15
EAU CLAIRE     FRZ RAIN  28  25  88 N14       29.76R FOG     WCI  17
MENOMONIE      LGT SNOW  28  26  89 N10       29.78F WCI  19
NEW RICHMOND   CLOUDY    27  19  72 N14G24    29.83R WCI  16
OSCEOLA        CLOUDY    26  20  76 N10       29.87R WCI  17
$$

WIZ003>005-009-010-017-018-241600-
NORTH CENTRAL WISCONSIN

CITY           SKY/WX    TMP DP  RH WIND       PRES   REMARKS
MANITOWISH WTR LGT SNOW  19  18  94 N9G20     29.79F WCI   9
ARBOR VITAE    LGT SNOW  22  18  85 NE12        N/A  WCI  10
WOODRUFF       LGT SNOW  22  18  85 NE12        N/A  WCI  10
RHINELANDER    MIX PCPN  23  18  81 NE9G21    29.75S WCI  13
EAGLE RIVER    LGT SNOW  21  16  82 NE14G22   29.76F WCI   8
LAND O LAKES   LGT SNOW  21  18  87 N12G20    29.80F WCI   9
PHILLIPS       LGT SNOW  22  19  87 N18       29.76F WCI   7
TOMAHAWK       LGT SNOW  23  19  83 NE8G22    29.74F WCI  14
MEDFORD        CLOUDY    24  20  85 NE16G24   29.69F WCI  11
MERRILL        NOT AVBL
$$

WIZ029-030-035-036-043>047-241600-
CENTRAL WISCONSIN

CITY           SKY/WX    TMP DP  RH WIND       PRES   REMARKS
WAUSAU         LGT SNOW  26  21  81 NE14G25   29.67F WCI  14
MOSINEE        LGT SNOW  27  27 100 NE13G24   29.67F VSB 3/4 WCI  16
MARSHFIELD     CLOUDY    27  23  85 NE16G23   29.67R FOG     WCI  15
STEVENS POINT  CLOUDY    26  23  89 NE20G32   29.66F FOG     WCI  13
WAUPACA        CLOUDY    31  27  86 NE13G24   29.66F FOG     WCI  21
WAUTOMA        LGT SNOW  28  27  93 NE23      29.62S FOG     WCI  14
WISC RAPIDS    CLOUDY    29  27  92 NE13G20   29.66F WCI  19
CAMP DOUGLAS   FRZ DRZL  28  27  93 NE13G20   29.65F FOG     WCI  18
$$

WIZ011>013-019>022-031-037>040-048>050-241600-
NORTHEAST WISCONSIN

CITY           SKY/WX    TMP DP  RH WIND       PRES   REMARKS
ANTIGO         CLOUDY    24  21  89 NE17      29.70F WCI  10
SHAWANO        CLOUDY    30  26  87 NE18G30   29.70F FOG     WCI  18
OCONTO         CLOUDY    28  26  90 N10       29.73S WCI  19
STURGEON BAY   LGT SNOW  29  26  89 NE16G26   29.71F FOG     WCI  17
GREEN BAY      SNOW      29  28  96 NE33G40   29.68S VSB 1/2 WCI  13
MANITOWOC      LGT SNOW  32  29  88 NE21G29   29.63F VSB 1   WCI  20
APPLETON       DRIZZLE   28  27  93 NE21G29   29.62F WCI  15
CLINTONVILLE   MIX PCPN  30  27  86 NE17G28   29.69F WCI  18
OSHKOSH        LGT SNOW  30  28  92 NE21G33   29.62F FOG     WCI  17
$$

WIZ032>034-041-042-053>061-241600-
SOUTHWEST WISCONSIN

CITY           SKY/WX    TMP DP  RH WIND       PRES   REMARKS
LA CROSSE      LGT SNOW  32  28  85 N10       29.69R FOG     WCI  24
SPARTA         MIX PCPN  29  28  93 NE12      29.69R WCI  20
VIROQUA        CLOUDY    29  27  92 NE21G28   29.60F WCI  16
BOSCOBEL       FRZ RAIN  32  28  85 NE13G21   29.59F FOG     WCI  22
PRAIRIE DU CHI CLOUDY    31  30  97 N15G25    29.59F FOG     WCI  20
PLATTEVILLE    CLOUDY    32  32 100 NE13      29.52S WCI  22
$$

WIZ056-057-062-063-064-067-068-241600-
SOUTH CENTRAL WISCONSIN

CITY           SKY/WX    TMP DP  RH WIND       PRES   REMARKS
REEDSBURG      CLOUDY    29  28  98 NE14G21   29.61R FOG     WCI  18
BARABOO/DELLS  CLOUDY    29  28  94 NE16      29.59F FOG     WCI  17
LONE ROCK      CLOUDY    31  27  85 NE12      29.60R FOG     WCI  22
MINERAL POINT  CLOUDY    32  32 100 NE7       29.51S WCI  26
MADISON        CLOUDY    32  30  92 NE20G26   29.56S FOG     WCI  20
MIDDLETON      CLOUDY    33  33 100 NE10      29.56F WCI  25
WATERTOWN      CLOUDY    32  32 100 NE13G18   29.55F FOG     WCI  22
MONROE         CLOUDY    32  32 100 NE23G35   29.50F FOG     WCI  19
JANESVILLE     CLOUDY    36  36 100 NE13G22   29.51F FOG     WCI  27
$$

WIZ051-052-058>065-066-070>072-241600-
SOUTHEAST WISCONSIN

CITY           SKY/WX    TMP DP  RH WIND       PRES   REMARKS
MILWAUKEE      LGT RAIN  36  33  89 NE18G25   29.55S FOG     WCI  26
WAUKESHA       DRIZZLE   30  30 100 NE16G35   29.56F FOG     WCI  19
MILWAUKEE/TIMM DRIZZLE   34  30  86 N16G29    29.57S WCI  23
RACINE         LGT RAIN  36  34  92 NE18G28   29.54F FOG     WCI  26
KENOSHA        MIX PCPN  36  34  92 NE18G28   29.51F FOG     WCI  26
FOND DU LAC    FLURRIES  32  27  81 NE23G29   29.62F WCI  19
SHEBOYGAN      LGT SNOW  32  31  96 NE29G35   29.61F FOG     WCI  18
WEST BEND      CLOUDY    32  32 100 NE9       29.58S FOG     WCI  24
JUNEAU         LGT SNOW  31  30  95 NE12G20   29.57F WCI  22
$$

LSZ147-162-241600-
LAKE SUPERIOR

STATION/POSITION TIME  TEMP    WIND        PRES    WAVE
                       AIR SEA DIR/SP/G            HT/PER
                 (UTC) (F)     (DEG/KT/KT) (MB)    (FT/S)
DEVILS ISLAND    1500   18      40/ 27/ 30 1016.0F
PORT WING        1440   23      40/ 20/ 26 1014.6S
SAXON HARBOR     1440   24      40/ 24/ 30 1013.2R
$$

LMZ867-665-643>646-241600-
LAKE MICHIGAN

STATION/POSITION TIME  TEMP    WIND        PRES    WAVE
                       AIR SEA DIR/SP/G            HT/PER
                 (UTC) (F)     (DEG/KT/KT) (MB)    (FT/S)
CHAMBERS ISLAND  1440   27      10/ 28/ 33 1006.8S
NORTHPORT PIER   1502   27      10/ 20     1007.1
SISTER BAY       1420   28     360/ 18/ 28   N/A
KEWAUNEE LAKESHO 1448   31      40/ 26/ 33 1004.3F
SHEBOYGAN LAKESH 1500   33      40/ 32/ 34 1003.2F
PORT WASHINGTON  1430   33      30/ 17/ 26 1003.7R
MILWAUKEE LAKESH 1450   35      30/ 21/ 23   N/A
KENOSHA   LAKESH 1500   36      30/ 21/ 25  999.7
$$

TC  - TEMPERATURE IN CELSIUS
VSB - VISIBILITY IN STATUTE MILES
WCI - WIND CHILL INDEX
HX  - HEAT INDEX




USA.gov is the U.S. government's official web portal to all federal, state and local government web resources and services.